Time,TemperatureF,DewpointF,PressureIn,WindDirection,WindDirectionDegrees,WindSpeedMPH,WindSpeedGustMPH,Humidity,HourlyPrecipIn,Conditions,Clouds,dailyrainin,SolarRadiationWatts/m^2,SoftwareType,DateUTC
2013-09-02 00:02:00,56.9,46.5,29.93,North,-999,6.0,6.0,68,0.00,,,0.00,0.00,VWS V14.01,2013-09-02 06:02:00,
2013-09-02 00:07:00,57.2,46.4,29.94,North,-999,0.0,7.0,67,0.00,,,0.00,0.00,VWS V14.01,2013-09-02 06:07:00,
2013-09-02 00:12:00,57.5,46.2,29.94,North,-999,5.0,5.0,66,0.00,,,0.00,0.00,VWS V14.01,2013-09-02 06:12:00,
2013-09-02 00:17:00,57.7,46.0,29.94,North,-999,7.0,7.0,65,0.00,,,0.00,0.00,VWS V14.01,2013-09-02 06:17:00,
2013-09-02 00:21:00,57.5,46.2,29.94,North,-999,6.0,9.0,66,0.00,,,0.00,0.00,VWS V14.01,2013-09-02 06:21:00,
2013-09-02 00:26:00,57.6,45.5,29.94,North,-999,4.0,9.0,64,0.00,,,0.00,0.00,VWS V14.01,2013-09-02 06:26:00,
2013-09-02 00:31:00,58.4,45.9,29.94,North,-999,5.0,6.0,63,0.00,,,0.00,0.00,VWS V14.01,2013-09-02 06:31:00,
2013-09-02 00:36:00,58.7,45.7,29.94,North,-999,5.0,6.0,62,0.00,,,0.00,0.00,VWS V14.01,2013-09-02 06:36:00,
2013-09-02 00:41:00,58.2,46.1,29.94,North,-999,6.0,7.0,64,0.00,,,0.00,0.00,VWS V14.01,2013-09-02 06:41:00,
2013-09-02 00:46:00,58.0,45.9,29.94,North,-999,5.0,7.0,64,0.00,,,0.00,0.00,VWS V14.01,2013-09-02 06:46:00,
2013-09-02 00:51:00,58.5,45.5,29.94,North,-999,4.0,6.0,62,0.00,,,0.00,0.00,VWS V14.01,2013-09-02 06:51:00,
2013-09-02 00:56:00,58.8,45.4,29.94,North,-999,5.0,6.0,61,0.00,,,0.00,0.00,VWS V14.01,2013-09-02 06:56:00,
2013-09-02 01:01:00,58.6,45.2,29.94,North,-999,6.0,7.0,61,0.00,,,0.00,0.00,VWS V14.01,2013-09-02 07:01:00,
2013-09-02 01:06:00,58.5,45.1,29.94,North,-999,4.0,7.0,61,0.00,,,0.00,0.00,VWS V14.01,2013-09-02 07:06:00,
2013-09-02 01:11:00,58.3,44.9,29.94,North,-999,7.0,7.0,61,0.00,,,0.00,0.00,VWS V14.01,2013-09-02 07:11:00,
2013-09-02 01:16:00,58.7,44.0,29.94,North,-999,7.0,9.0,58,0.00,,,0.00,0.00,VWS V14.01,2013-09-02 07:16:00,
2013-09-02 01:21:00,59.3,43.6,29.94,North,-999,6.0,8.0,56,0.00,,,0.00,0.00,VWS V14.01,2013-09-02 07:21:00,
2013-09-02 01:26:00,59.4,43.7,29.94,North,-999,11.0,11.0,56,0.00,,,0.00,0.00,VWS V14.01,2013-09-02 07:26:00,
2013-09-02 01:31:00,59.4,43.2,29.94,North,-999,7.0,10.0,55,0.00,,,0.00,0.00,VWS V14.01,2013-09-02 07:31:00,
2013-09-02 01:36:00,59.8,43.1,29.94,North,-999,7.0,10.0,54,0.00,,,0.00,0.00,VWS V14.01,2013-09-02 07:36:00,
2013-09-02 01:41:00,60.3,43.1,29.94,North,-999,9.0,10.0,53,0.00,,,0.00,0.00,VWS V14.01,2013-09-02 07:41:00,
2013-09-02 01:46:00,60.2,43.0,29.93,North,-999,7.0,10.0,53,0.00,,,0.00,0.00,VWS V14.01,2013-09-02 07:46:00,
2013-09-02 01:51:00,59.5,42.9,29.93,North,-999,6.0,10.0,54,0.00,,,0.00,0.00,VWS V14.01,2013-09-02 07:51:00,
2013-09-02 01:56:00,59.0,42.4,29.93,North,-999,6.0,10.0,54,0.00,,,0.00,0.00,VWS V14.01,2013-09-02 07:56:00,
2013-09-02 02:01:00,59.1,42.5,29.93,North,-999,5.0,7.0,54,0.00,,,0.00,0.00,VWS V14.01,2013-09-02 08:01:00,
2013-09-02 02:06:00,59.0,42.4,29.93,North,-999,6.0,7.0,54,0.00,,,0.00,0.00,VWS V14.01,2013-09-02 08:06:00,
2013-09-02 02:11:00,58.9,42.3,29.94,North,-999,7.0,7.0,54,0.00,,,0.00,0.00,VWS V14.01,2013-09-02 08:11:00,
2013-09-02 02:16:00,58.9,41.8,29.94,North,-999,9.0,10.0,53,0.00,,,0.00,0.00,VWS V14.01,2013-09-02 08:16:00,
2013-09-02 02:21:00,58.8,41.7,29.94,North,-999,8.0,10.0,53,0.00,,,0.00,0.00,VWS V14.01,2013-09-02 08:21:00,
2013-09-02 02:26:00,58.9,41.8,29.93,North,-999,7.0,10.0,53,0.00,,,0.00,0.00,VWS V14.01,2013-09-02 08:26:00,
2013-09-02 02:31:00,58.7,41.6,29.93,North,-999,6.0,8.0,53,0.00,,,0.00,0.00,VWS V14.01,2013-09-02 08:31:00,
2013-09-02 02:36:00,58.9,41.3,29.93,North,-999,4.0,8.0,52,0.00,,,0.00,0.00,VWS V14.01,2013-09-02 08:36:00,
2013-09-02 02:41:00,59.0,41.9,29.93,North,-999,5.0,6.0,53,0.00,,,0.00,0.00,VWS V14.01,2013-09-02 08:41:00,
2013-09-02 02:46:00,58.5,41.9,29.94,North,-999,6.0,7.0,54,0.00,,,0.00,0.00,VWS V14.01,2013-09-02 08:46:00,
2013-09-02 02:51:00,58.0,41.9,29.94,North,-999,8.0,8.0,55,0.00,,,0.00,0.00,VWS V14.01,2013-09-02 08:51:00,
2013-09-02 02:56:00,58.3,41.8,29.94,North,-999,7.0,10.0,54,0.00,,,0.00,0.00,VWS V14.01,2013-09-02 08:56:00,
2013-09-02 03:01:00,58.4,41.8,29.94,North,-999,7.0,9.0,54,0.00,,,0.00,0.00,VWS V14.01,2013-09-02 09:01:00,
2013-09-02 03:06:00,58.7,41.6,29.94,North,-999,7.0,10.0,53,0.00,,,0.00,0.00,VWS V14.01,2013-09-02 09:06:00,
2013-09-02 03:11:00,58.7,41.1,29.94,North,-999,7.0,7.0,52,0.00,,,0.00,0.00,VWS V14.01,2013-09-02 09:11:00,
2013-09-02 03:16:00,59.6,41.0,29.94,North,-999,9.0,10.0,50,0.00,,,0.00,0.00,VWS V14.01,2013-09-02 09:16:00,
2013-09-02 03:21:00,59.5,41.4,29.93,North,-999,6.0,10.0,51,0.00,,,0.00,0.00,VWS V14.01,2013-09-02 09:21:00,
2013-09-02 03:26:00,59.6,41.5,29.93,North,-999,7.0,10.0,51,0.00,,,0.00,0.00,VWS V14.01,2013-09-02 09:26:00,
2013-09-02 03:31:00,59.5,41.4,29.93,North,-999,8.0,10.0,51,0.00,,,0.00,0.00,VWS V14.01,2013-09-02 09:31:00,
2013-09-02 03:36:00,59.3,41.2,29.93,North,-999,7.0,10.0,51,0.00,,,0.00,0.00,VWS V14.01,2013-09-02 09:36:00,
2013-09-02 03:41:00,59.1,41.5,29.93,North,-999,6.0,7.0,52,0.00,,,0.00,0.00,VWS V14.01,2013-09-02 09:41:00,
2013-09-02 03:46:00,59.2,41.6,29.93,North,-999,7.0,9.0,52,0.00,,,0.00,0.00,VWS V14.01,2013-09-02 09:46:00,
2013-09-02 03:51:00,59.5,41.4,29.93,North,-999,5.0,7.0,51,0.00,,,0.00,0.00,VWS V14.01,2013-09-02 09:51:00,
2013-09-02 03:56:00,59.6,41.5,29.93,North,-999,5.0,7.0,51,0.00,,,0.00,0.00,VWS V14.01,2013-09-02 09:56:00,
2013-09-02 04:01:00,59.6,42.0,29.93,North,-999,5.0,7.0,52,0.00,,,0.00,0.00,VWS V14.01,2013-09-02 10:01:00,
2013-09-02 04:06:00,59.2,42.1,29.93,North,-999,6.0,7.0,53,0.00,,,0.00,0.00,VWS V14.01,2013-09-02 10:06:00,
2013-09-02 04:11:00,58.7,42.1,29.93,North,-999,4.0,6.0,54,0.00,,,0.00,0.00,VWS V14.01,2013-09-02 10:11:00,
2013-09-02 04:16:00,58.9,41.8,29.93,North,-999,4.0,6.0,53,0.00,,,0.00,0.00,VWS V14.01,2013-09-02 10:16:00,
2013-09-02 04:21:00,58.9,42.3,29.93,North,-999,4.0,5.0,54,0.00,,,0.00,0.00,VWS V14.01,2013-09-02 10:21:00,
2013-09-02 04:26:00,58.5,42.4,29.93,North,-999,5.0,5.0,55,0.00,,,0.00,0.00,VWS V14.01,2013-09-02 10:26:00,
2013-09-02 04:31:00,58.4,41.3,29.93,North,-999,5.0,6.0,53,0.00,,,0.00,0.00,VWS V14.01,2013-09-02 10:31:00,
2013-09-02 04:36:00,59.1,40.5,29.93,North,-999,6.0,8.0,50,0.00,,,0.00,0.00,VWS V14.01,2013-09-02 10:36:00,
2013-09-02 04:41:00,59.9,40.7,29.93,North,-999,2.0,7.0,49,0.00,,,0.00,0.00,VWS V14.01,2013-09-02 10:41:00,
2013-09-02 04:46:00,60.6,40.3,29.93,North,-999,0.0,7.0,47,0.00,,,0.00,0.00,VWS V14.01,2013-09-02 10:46:00,
2013-09-02 04:51:00,61.2,40.8,29.93,North,-999,0.0,0.0,47,0.00,,,0.00,0.00,VWS V14.01,2013-09-02 10:51:00,
2013-09-02 04:56:00,60.9,40.5,29.93,North,-999,0.0,0.0,47,0.00,,,0.00,0.00,VWS V14.01,2013-09-02 10:56:00,
2013-09-02 05:01:00,60.9,40.5,29.93,North,-999,0.0,5.0,47,0.00,,,0.00,0.00,VWS V14.01,2013-09-02 11:01:00,
2013-09-02 05:06:00,60.9,41.1,29.93,North,-999,0.0,5.0,48,0.00,,,0.00,0.00,VWS V14.01,2013-09-02 11:06:00,
2013-09-02 05:11:00,60.7,40.9,29.93,North,-999,0.0,0.0,48,0.00,,,0.00,0.00,VWS V14.01,2013-09-02 11:11:00,
2013-09-02 05:16:00,60.7,40.9,29.93,North,-999,0.0,0.0,48,0.00,,,0.00,0.00,VWS V14.01,2013-09-02 11:16:00,
2013-09-02 05:21:00,60.4,41.7,29.93,North,-999,0.0,0.0,50,0.00,,,0.00,0.00,VWS V14.01,2013-09-02 11:21:00,
2013-09-02 05:26:00,60.0,41.3,29.93,North,-999,0.0,0.0,50,0.00,,,0.00,0.00,VWS V14.01,2013-09-02 11:26:00,
2013-09-02 05:31:00,60.3,41.1,29.93,North,-999,4.0,4.0,49,0.00,,,0.00,0.00,VWS V14.01,2013-09-02 11:31:00,
2013-09-02 05:36:00,60.0,40.8,29.93,North,-999,4.0,5.0,49,0.00,,,0.00,0.00,VWS V14.01,2013-09-02 11:36:00,
2013-09-02 05:41:00,59.5,41.4,29.93,North,-999,4.0,5.0,51,0.00,,,0.00,0.00,VWS V14.01,2013-09-02 11:41:00,
2013-09-02 05:46:00,58.7,41.1,29.93,North,-999,4.0,5.0,52,0.00,,,0.00,0.00,VWS V14.01,2013-09-02 11:46:00,
2013-09-02 05:51:00,57.9,41.8,29.94,North,-999,4.0,4.0,55,0.00,,,0.00,0.00,VWS V14.01,2013-09-02 11:51:00,
2013-09-02 05:56:00,57.1,42.0,29.93,North,-999,3.0,4.0,57,0.00,,,0.00,0.00,VWS V14.01,2013-09-02 11:56:00,
2013-09-02 06:01:00,57.2,41.7,29.93,North,-999,4.0,5.0,56,0.00,,,0.00,0.00,VWS V14.01,2013-09-02 12:01:00,
2013-09-02 06:06:00,57.7,41.2,29.93,North,-999,4.0,5.0,54,0.00,,,0.00,0.00,VWS V14.01,2013-09-02 12:06:00,
2013-09-02 06:11:00,57.6,41.1,29.93,North,-999,5.0,7.0,54,0.00,,,0.00,0.00,VWS V14.01,2013-09-02 12:11:00,
2013-09-02 06:16:00,57.5,41.0,29.93,North,-999,3.0,7.0,54,0.00,,,0.00,0.00,VWS V14.01,2013-09-02 12:16:00,
2013-09-02 06:21:00,58.0,40.5,29.93,North,-999,0.0,4.0,52,0.00,,,0.00,0.00,VWS V14.01,2013-09-02 12:21:00,
2013-09-02 06:26:00,58.3,40.8,29.93,North,-999,0.0,4.0,52,0.00,,,0.00,0.00,VWS V14.01,2013-09-02 12:26:00,
2013-09-02 06:31:00,58.7,41.1,29.93,North,-999,0.0,0.0,52,0.00,,,0.00,0.00,VWS V14.01,2013-09-02 12:31:00,
2013-09-02 06:36:00,58.8,41.2,29.93,North,-999,0.0,0.0,52,0.00,,,0.00,0.00,VWS V14.01,2013-09-02 12:36:00,
2013-09-02 06:41:00,58.6,41.0,29.93,North,-999,0.0,0.0,52,0.00,,,0.00,5.00,VWS V14.01,2013-09-02 12:41:00,
2013-09-02 06:46:00,58.5,40.5,29.93,North,-999,0.0,0.0,51,0.00,,,0.00,7.00,VWS V14.01,2013-09-02 12:46:00,
2013-09-02 06:51:00,57.9,41.8,29.93,North,-999,0.0,0.0,55,0.00,,,0.00,11.00,VWS V14.01,2013-09-02 12:51:00,
2013-09-02 06:56:00,56.2,42.1,29.93,North,-999,0.0,0.0,59,0.00,,,0.00,16.00,VWS V14.01,2013-09-02 12:56:00,
2013-09-02 07:01:00,55.7,42.0,29.93,North,-999,0.0,0.0,60,0.00,,,0.00,21.00,VWS V14.01,2013-09-02 13:01:00,
2013-09-02 07:06:00,55.7,42.0,29.94,North,-999,5.0,5.0,60,0.00,,,0.00,26.00,VWS V14.01,2013-09-02 13:06:00,
2013-09-02 07:11:00,55.9,41.3,29.94,North,-999,4.0,5.0,58,0.00,,,0.00,30.00,VWS V14.01,2013-09-02 13:11:00,
2013-09-02 07:16:00,56.2,42.1,29.94,North,-999,3.0,5.0,59,0.00,,,0.00,33.00,VWS V14.01,2013-09-02 13:16:00,
2013-09-02 07:21:00,56.2,42.5,29.94,North,-999,6.0,6.0,60,0.00,,,0.00,37.00,VWS V14.01,2013-09-02 13:21:00,
2013-09-02 07:26:00,56.1,42.8,29.93,North,-999,0.0,6.0,61,0.00,,,0.00,60.00,VWS V14.01,2013-09-02 13:26:00,
2013-09-02 07:31:00,56.7,42.5,29.93,North,-999,0.0,0.0,59,0.00,,,0.00,74.00,VWS V14.01,2013-09-02 13:31:00,
2013-09-02 07:36:00,57.1,42.9,29.93,North,-999,0.0,0.0,59,0.00,,,0.00,97.00,VWS V14.01,2013-09-02 13:36:00,
2013-09-02 07:41:00,58.0,42.9,29.93,North,-999,0.0,1.0,57,0.00,,,0.00,130.00,VWS V14.01,2013-09-02 13:41:00,
2013-09-02 07:46:00,59.1,44.3,29.93,North,-999,0.0,1.0,58,0.00,,,0.00,165.00,VWS V14.01,2013-09-02 13:46:00,
2013-09-02 07:51:00,60.1,44.4,29.93,North,-999,0.0,0.0,56,0.00,,,0.00,183.00,VWS V14.01,2013-09-02 13:51:00,
2013-09-02 07:56:00,61.3,46.0,29.93,North,-999,4.0,5.0,57,0.00,,,0.00,190.00,VWS V14.01,2013-09-02 13:56:00,
2013-09-02 08:01:00,62.8,45.4,29.93,North,-999,3.0,5.0,53,0.00,,,0.00,202.00,VWS V14.01,2013-09-02 14:01:00,
2013-09-02 08:06:00,63.8,45.9,29.93,North,-999,3.0,5.0,52,0.00,,,0.00,216.00,VWS V14.01,2013-09-02 14:06:00,
2013-09-02 08:11:00,64.3,46.3,29.94,North,-999,6.0,6.0,52,0.00,,,0.00,225.00,VWS V14.01,2013-09-02 14:11:00,
2013-09-02 08:16:00,64.7,46.7,29.94,North,-999,5.0,6.0,52,0.00,,,0.00,243.00,VWS V14.01,2013-09-02 14:16:00,
2013-09-02 08:21:00,65.3,46.7,29.94,North,-999,5.0,7.0,51,0.00,,,0.00,218.00,VWS V14.01,2013-09-02 14:21:00,
2013-09-02 08:26:00,65.3,47.2,29.94,North,-999,3.0,7.0,52,0.00,,,0.00,125.00,VWS V14.01,2013-09-02 14:26:00,
2013-09-02 08:31:00,65.1,46.5,29.94,North,-999,6.0,6.0,51,0.00,,,0.00,137.00,VWS V14.01,2013-09-02 14:31:00,
2013-09-02 08:36:00,65.1,48.1,29.94,North,-999,6.0,7.0,54,0.00,,,0.00,316.00,VWS V14.01,2013-09-02 14:36:00,
2013-09-02 08:41:00,65.5,47.4,29.94,North,-999,5.0,8.0,52,0.00,,,0.00,114.00,VWS V14.01,2013-09-02 14:41:00,
2013-09-02 08:46:00,65.8,47.7,29.94,North,-999,4.0,8.0,52,0.00,,,0.00,109.00,VWS V14.01,2013-09-02 14:46:00,
2013-09-02 08:51:00,65.9,48.3,29.94,North,-999,3.0,5.0,53,0.00,,,0.00,127.00,VWS V14.01,2013-09-02 14:51:00,
2013-09-02 08:56:00,66.1,47.5,29.93,North,-999,0.0,5.0,51,0.00,,,0.00,114.00,VWS V14.01,2013-09-02 14:56:00,
2013-09-02 09:01:00,66.5,47.3,29.94,North,-999,0.0,4.0,50,0.00,,,0.00,116.00,VWS V14.01,2013-09-02 15:01:00,
2013-09-02 09:06:00,66.7,48.0,29.94,North,-999,4.0,4.0,51,0.00,,,0.00,149.00,VWS V14.01,2013-09-02 15:06:00,
2013-09-02 09:11:00,66.8,46.5,29.94,North,-999,5.0,5.0,48,0.00,,,0.00,237.00,VWS V14.01,2013-09-02 15:11:00,
2013-09-02 09:16:00,67.4,46.5,29.93,North,-999,0.0,5.0,47,0.00,,,0.00,225.00,VWS V14.01,2013-09-02 15:16:00,
2013-09-02 09:21:00,67.9,46.4,29.93,North,-999,0.0,0.0,46,0.00,,,0.00,221.00,VWS V14.01,2013-09-02 15:21:00,
2013-09-02 09:26:00,68.4,45.0,29.93,North,-999,0.0,1.0,43,0.00,,,0.00,202.00,VWS V14.01,2013-09-02 15:26:00,
2013-09-02 09:31:00,68.7,45.3,29.94,North,-999,0.0,4.0,43,0.00,,,0.00,195.00,VWS V14.01,2013-09-02 15:31:00,
2013-09-02 09:36:00,69.1,45.7,29.94,North,-999,0.0,4.0,43,0.00,,,0.00,202.00,VWS V14.01,2013-09-02 15:36:00,
2013-09-02 09:41:00,69.5,46.7,29.94,North,-999,0.0,0.0,44,0.00,,,0.00,202.00,VWS V14.01,2013-09-02 15:41:00,
2013-09-02 09:46:00,70.0,46.5,29.94,North,-999,0.0,2.0,43,0.00,,,0.00,186.00,VWS V14.01,2013-09-02 15:46:00,
2013-09-02 09:51:00,70.4,47.5,29.94,North,-999,0.0,0.0,44,0.00,,,0.00,167.00,VWS V14.01,2013-09-02 15:51:00,
2013-09-02 09:56:00,70.6,47.7,29.94,North,-999,0.0,0.0,44,0.00,,,0.00,165.00,VWS V14.01,2013-09-02 15:56:00,
2013-09-02 10:01:00,70.7,47.7,29.94,North,-999,0.0,0.0,44,0.00,,,0.00,200.00,VWS V14.01,2013-09-02 16:01:00,
2013-09-02 10:06:00,70.9,48.5,29.94,North,-999,0.0,0.0,45,0.00,,,0.00,230.00,VWS V14.01,2013-09-02 16:06:00,
2013-09-02 10:11:00,71.1,49.3,29.94,North,-999,0.0,0.0,46,0.00,,,0.00,236.00,VWS V14.01,2013-09-02 16:11:00,
2013-09-02 10:15:00,71.2,48.8,29.94,North,-999,0.0,5.0,45,0.00,,,0.00,241.00,VWS V14.01,2013-09-02 16:15:00,
2013-09-02 10:20:00,71.1,48.1,29.94,North,-999,0.0,3.0,44,0.00,,,0.00,246.00,VWS V14.01,2013-09-02 16:20:00,
2013-09-02 10:25:00,71.2,47.6,29.94,North,-999,0.0,3.0,43,0.00,,,0.00,283.00,VWS V14.01,2013-09-02 16:25:00,
2013-09-02 10:30:00,71.2,47.6,29.94,North,-999,0.0,0.0,43,0.00,,,0.00,315.00,VWS V14.01,2013-09-02 16:30:00,
2013-09-02 10:35:00,71.4,45.8,29.93,North,-999,2.0,4.0,40,0.00,,,0.00,278.00,VWS V14.01,2013-09-02 16:35:00,
2013-09-02 10:40:00,71.6,46.7,29.94,North,-999,0.0,2.0,41,0.00,,,0.00,244.00,VWS V14.01,2013-09-02 16:40:00,
2013-09-02 10:45:00,71.9,44.9,29.94,North,-999,0.0,2.0,38,0.00,,,0.00,197.00,VWS V14.01,2013-09-02 16:45:00,
2013-09-02 10:50:00,72.2,43.8,29.94,North,-999,0.0,0.0,36,0.00,,,0.00,169.00,VWS V14.01,2013-09-02 16:50:00,
2013-09-02 10:55:00,72.5,44.1,29.94,North,-999,0.0,0.0,36,0.00,,,0.00,160.00,VWS V14.01,2013-09-02 16:55:00,
2013-09-02 11:00:00,72.6,44.9,29.93,North,-999,0.0,2.0,37,0.00,,,0.00,174.00,VWS V14.01,2013-09-02 17:00:00,
2013-09-02 11:05:00,72.7,46.3,29.93,North,-999,0.0,2.0,39,0.00,,,0.00,174.00,VWS V14.01,2013-09-02 17:05:00,
2013-09-02 11:10:00,72.8,47.1,29.93,North,-999,0.0,0.0,40,0.00,,,0.00,171.00,VWS V14.01,2013-09-02 17:10:00,
2013-09-02 11:15:00,72.9,46.5,29.93,North,-999,0.0,0.0,39,0.00,,,0.00,186.00,VWS V14.01,2013-09-02 17:15:00,
2013-09-02 11:20:00,73.0,45.9,29.93,North,-999,0.0,0.0,38,0.00,,,0.00,195.00,VWS V14.01,2013-09-02 17:20:00,
2013-09-02 11:25:00,73.1,47.4,29.93,North,-999,0.0,0.0,40,0.00,,,0.00,214.00,VWS V14.01,2013-09-02 17:25:00,
2013-09-02 11:30:00,73.3,46.9,29.93,North,-999,0.0,0.0,39,0.00,,,0.00,229.00,VWS V14.01,2013-09-02 17:30:00,
2013-09-02 11:35:00,73.4,47.0,29.93,North,-999,0.0,0.0,39,0.00,,,0.00,272.00,VWS V14.01,2013-09-02 17:35:00,
2013-09-02 11:40:00,73.8,46.6,29.93,North,-999,0.0,0.0,38,0.00,,,0.00,355.00,VWS V14.01,2013-09-02 17:40:00,
2013-09-02 11:45:00,74.2,44.1,29.93,North,-999,0.0,1.0,34,0.00,,,0.00,297.00,VWS V14.01,2013-09-02 17:45:00,
2013-09-02 11:50:00,74.5,45.1,29.93,North,-999,2.0,3.0,35,0.00,,,0.00,246.00,VWS V14.01,2013-09-02 17:50:00,
2013-09-02 11:55:00,74.6,45.9,29.93,North,-999,0.0,3.0,36,0.00,,,0.00,218.00,VWS V14.01,2013-09-02 17:55:00,
2013-09-02 12:00:00,74.6,45.9,29.93,North,-999,0.0,0.0,36,0.00,,,0.00,197.00,VWS V14.01,2013-09-02 18:00:00,
2013-09-02 12:05:00,74.7,46.0,29.93,North,-999,0.0,0.0,36,0.00,,,0.00,195.00,VWS V14.01,2013-09-02 18:05:00,
2013-09-02 12:10:00,74.9,46.9,29.93,North,-999,0.0,0.0,37,0.00,,,0.00,285.00,VWS V14.01,2013-09-02 18:10:00,
2013-09-02 12:15:00,75.1,46.3,29.92,North,-999,0.0,0.0,36,0.00,,,0.00,352.00,VWS V14.01,2013-09-02 18:15:00,
2013-09-02 12:20:00,75.1,47.1,29.93,North,-999,0.0,2.0,37,0.00,,,0.00,251.00,VWS V14.01,2013-09-02 18:20:00,
2013-09-02 12:25:00,75.3,45.8,29.93,North,-999,0.0,2.0,35,0.00,,,0.00,209.00,VWS V14.01,2013-09-02 18:25:00,
2013-09-02 12:30:00,75.6,43.7,29.93,North,-999,0.0,0.0,32,0.00,,,0.00,200.00,VWS V14.01,2013-09-02 18:30:00,
2013-09-02 12:35:00,75.9,43.1,29.93,North,-999,0.0,0.0,31,0.00,,,0.00,220.00,VWS V14.01,2013-09-02 18:35:00,
2013-09-02 12:40:00,76.1,44.1,29.92,North,-999,0.0,0.0,32,0.00,,,0.00,246.00,VWS V14.01,2013-09-02 18:40:00,
2013-09-02 12:45:00,76.5,44.5,29.92,North,-999,0.0,0.0,32,0.00,,,0.00,366.00,VWS V14.01,2013-09-02 18:45:00,
2013-09-02 12:50:00,76.7,44.7,29.92,North,-999,0.0,0.0,32,0.00,,,0.00,429.00,VWS V14.01,2013-09-02 18:50:00,
2013-09-02 12:55:00,76.7,45.5,29.92,North,-999,0.0,1.0,33,0.00,,,0.00,385.00,VWS V14.01,2013-09-02 18:55:00,
2013-09-02 13:00:00,76.9,46.4,29.92,North,-999,0.0,0.0,34,0.00,,,0.00,362.00,VWS V14.01,2013-09-02 19:00:00,
2013-09-02 13:05:00,77.1,46.6,29.92,North,-999,0.0,0.0,34,0.00,,,0.00,311.00,VWS V14.01,2013-09-02 19:05:00,
2013-09-02 13:10:00,77.5,47.0,29.92,North,-999,0.0,0.0,34,0.00,,,0.00,265.00,VWS V14.01,2013-09-02 19:10:00,
2013-09-02 13:15:00,77.8,47.2,29.92,North,-999,0.0,5.0,34,0.00,,,0.00,232.00,VWS V14.01,2013-09-02 19:15:00,
2013-09-02 13:20:00,77.8,46.4,29.92,North,-999,0.0,3.0,33,0.00,,,0.00,255.00,VWS V14.01,2013-09-02 19:20:00,
2013-09-02 13:25:00,77.7,46.3,29.92,North,-999,0.0,3.0,33,0.00,,,0.00,311.00,VWS V14.01,2013-09-02 19:25:00,
2013-09-02 13:30:00,77.8,46.4,29.92,North,-999,0.0,0.0,33,0.00,,,0.00,320.00,VWS V14.01,2013-09-02 19:30:00,
2013-09-02 13:35:00,78.0,46.6,29.92,North,-999,0.0,0.0,33,0.00,,,0.00,345.00,VWS V14.01,2013-09-02 19:35:00,
2013-09-02 13:40:00,77.8,46.4,29.92,North,-999,0.0,2.0,33,0.00,,,0.00,304.00,VWS V14.01,2013-09-02 19:40:00,
2013-09-02 13:45:00,77.8,45.6,29.92,North,-999,0.0,2.0,32,0.00,,,0.00,244.00,VWS V14.01,2013-09-02 19:45:00,
2013-09-02 13:50:00,78.0,46.6,29.92,North,-999,0.0,0.0,33,0.00,,,0.00,211.00,VWS V14.01,2013-09-02 19:50:00,
2013-09-02 13:55:00,78.3,46.0,29.92,North,-999,0.0,0.0,32,0.00,,,0.00,195.00,VWS V14.01,2013-09-02 19:55:00,
2013-09-02 14:00:00,78.4,45.3,29.92,North,-999,0.0,0.0,31,0.00,,,0.00,186.00,VWS V14.01,2013-09-02 20:00:00,
2013-09-02 14:05:00,78.5,45.4,29.92,North,-999,0.0,0.0,31,0.00,,,0.00,193.00,VWS V14.01,2013-09-02 20:05:00,
2013-09-02 14:10:00,78.7,46.4,29.92,North,-999,0.0,0.0,32,0.00,,,0.00,167.00,VWS V14.01,2013-09-02 20:10:00,
2013-09-02 14:15:00,78.6,46.3,29.92,North,-999,0.0,0.0,32,0.00,,,0.00,176.00,VWS V14.01,2013-09-02 20:15:00,
2013-09-02 14:20:00,78.6,48.7,29.93,North,-999,4.0,9.0,35,0.00,,,0.00,186.00,VWS V14.01,2013-09-02 20:20:00,
2013-09-02 14:25:00,78.4,48.5,29.92,North,-999,0.0,9.0,35,0.00,,,0.00,162.00,VWS V14.01,2013-09-02 20:25:00,
2013-09-02 14:30:00,78.3,49.2,29.92,North,-999,0.0,0.0,36,0.00,,,0.00,148.00,VWS V14.01,2013-09-02 20:30:00,
2013-09-02 14:35:00,78.2,47.6,29.91,North,-999,6.0,6.0,34,0.00,,,0.00,167.00,VWS V14.01,2013-09-02 20:35:00,
2013-09-02 14:40:00,77.6,50.7,29.91,North,-999,6.0,7.0,39,0.00,,,0.00,190.00,VWS V14.01,2013-09-02 20:40:00,
2013-09-02 14:45:00,77.1,50.3,29.91,North,-999,3.0,7.0,39,0.00,,,0.00,236.00,VWS V14.01,2013-09-02 20:45:00,
2013-09-02 14:50:00,77.1,52.3,29.91,North,-999,0.0,2.0,42,0.00,,,0.00,292.00,VWS V14.01,2013-09-02 20:50:00,
2013-09-02 14:55:00,77.1,50.3,29.91,North,-999,4.0,6.0,39,0.00,,,0.00,309.00,VWS V14.01,2013-09-02 20:55:00,
2013-09-02 15:00:00,77.3,49.7,29.91,North,-999,4.0,5.0,38,0.00,,,0.00,255.00,VWS V14.01,2013-09-02 21:00:00,
2013-09-02 15:05:00,77.4,50.5,29.91,North,-999,4.0,6.0,39,0.00,,,0.00,204.00,VWS V14.01,2013-09-02 21:05:00,
2013-09-02 15:10:00,77.5,49.2,29.91,North,-999,0.0,2.0,37,0.00,,,0.00,174.00,VWS V14.01,2013-09-02 21:10:00,
2013-09-02 15:15:00,77.6,48.6,29.91,North,-999,0.0,2.0,36,0.00,,,0.00,172.00,VWS V14.01,2013-09-02 21:15:00,
2013-09-02 15:20:00,77.8,48.7,29.91,North,-999,0.0,0.0,36,0.00,,,0.00,163.00,VWS V14.01,2013-09-02 21:20:00,
2013-09-02 15:25:00,78.1,49.7,29.91,North,-999,0.0,0.0,37,0.00,,,0.00,141.00,VWS V14.01,2013-09-02 21:25:00,
2013-09-02 15:30:00,78.2,49.8,29.91,North,-999,0.0,4.0,37,0.00,,,0.00,137.00,VWS V14.01,2013-09-02 21:30:00,
2013-09-02 15:35:00,78.1,51.2,29.91,North,-999,5.0,7.0,39,0.00,,,0.00,123.00,VWS V14.01,2013-09-02 21:35:00,
2013-09-02 15:40:00,77.9,51.7,29.91,North,-999,9.0,10.0,40,0.00,,,0.00,90.00,VWS V14.01,2013-09-02 21:40:00,
2013-09-02 15:45:00,77.2,54.8,29.92,North,-999,9.0,11.0,46,0.00,,,0.00,84.00,VWS V14.01,2013-09-02 21:45:00,
2013-09-02 15:50:00,75.7,57.9,29.92,North,-999,10.0,12.0,54,0.00,,,0.00,113.00,VWS V14.01,2013-09-02 21:50:00,
2013-09-02 15:55:00,74.3,58.6,29.92,North,-999,11.0,17.0,58,0.00,,,0.00,144.00,VWS V14.01,2013-09-02 21:55:00,
2013-09-02 16:00:00,73.2,60.3,29.92,North,-999,13.0,13.0,64,0.00,,,0.00,172.00,VWS V14.01,2013-09-02 22:00:00,
2013-09-02 16:05:00,72.6,61.4,29.91,North,-999,12.0,15.0,68,0.00,,,0.00,251.00,VWS V14.01,2013-09-02 22:05:00,
2013-09-02 16:10:00,72.8,61.6,29.91,North,-999,12.0,15.0,68,0.00,,,0.00,320.00,VWS V14.01,2013-09-02 22:10:00,
2013-09-02 16:15:00,73.7,62.1,29.91,North,-999,8.0,15.0,67,0.00,,,0.00,334.00,VWS V14.01,2013-09-02 22:15:00,
2013-09-02 16:20:00,74.1,61.2,29.90,North,-999,8.0,12.0,64,0.00,,,0.00,232.00,VWS V14.01,2013-09-02 22:20:00,
2013-09-02 16:25:00,74.8,60.5,29.90,North,-999,9.0,12.0,61,0.00,,,0.00,181.00,VWS V14.01,2013-09-02 22:25:00,
2013-09-02 16:30:00,75.5,60.2,29.90,North,-999,8.0,12.0,59,0.00,,,0.00,172.00,VWS V14.01,2013-09-02 22:30:00,
2013-09-02 16:35:00,76.0,60.2,29.90,North,-999,8.0,12.0,58,0.00,,,0.00,207.00,VWS V14.01,2013-09-02 22:35:00,
2013-09-02 16:40:00,76.4,58.5,29.89,North,-999,7.0,14.0,54,0.00,,,0.00,373.00,VWS V14.01,2013-09-02 22:40:00,
2013-09-02 16:44:00,76.6,58.2,29.90,North,-999,10.0,14.0,53,0.00,,,0.00,262.00,VWS V14.01,2013-09-02 22:44:00,
2013-09-02 16:49:00,76.2,58.4,29.89,North,-999,7.0,13.0,54,0.00,,,0.00,239.00,VWS V14.01,2013-09-02 22:49:00,
2013-09-02 16:54:00,75.9,58.1,29.89,North,-999,6.0,13.0,54,0.00,,,0.00,258.00,VWS V14.01,2013-09-02 22:54:00,
2013-09-02 16:59:00,75.7,58.9,29.89,North,-999,11.0,11.0,56,0.00,,,0.00,260.00,VWS V14.01,2013-09-02 22:59:00,
2013-09-02 17:04:00,75.6,58.3,29.89,North,-999,10.0,14.0,55,0.00,,,0.00,236.00,VWS V14.01,2013-09-02 23:04:00,
2013-09-02 17:09:00,75.2,58.4,29.89,North,-999,13.0,14.0,56,0.00,,,0.00,195.00,VWS V14.01,2013-09-02 23:09:00,
2013-09-02 17:14:00,75.2,58.4,29.89,North,-999,13.0,15.0,56,0.00,,,0.00,162.00,VWS V14.01,2013-09-02 23:14:00,
2013-09-02 17:19:00,75.2,57.4,29.89,North,-999,7.0,14.0,54,0.00,,,0.00,176.00,VWS V14.01,2013-09-02 23:19:00,
2013-09-02 17:24:00,75.5,57.7,29.89,North,-999,11.0,14.0,54,0.00,,,0.00,149.00,VWS V14.01,2013-09-02 23:24:00,
2013-09-02 17:29:00,75.8,58.0,29.89,North,-999,5.0,12.0,54,0.00,,,0.00,118.00,VWS V14.01,2013-09-02 23:29:00,
2013-09-02 17:34:00,76.2,56.8,29.89,North,-999,11.0,16.0,51,0.00,,,0.00,84.00,VWS V14.01,2013-09-02 23:34:00,
2013-09-02 17:39:00,76.2,57.8,29.89,North,-999,6.0,10.0,53,0.00,,,0.00,79.00,VWS V14.01,2013-09-02 23:39:00,
2013-09-02 17:44:00,76.1,57.2,29.89,North,-999,8.0,11.0,52,0.00,,,0.00,91.00,VWS V14.01,2013-09-02 23:44:00,
2013-09-02 17:49:00,76.3,57.4,29.89,North,-999,6.0,11.0,52,0.00,,,0.00,105.00,VWS V14.01,2013-09-02 23:49:00,
2013-09-02 17:54:00,76.0,58.2,29.89,North,-999,3.0,11.0,54,0.00,,,0.00,74.00,VWS V14.01,2013-09-02 23:54:00,
2013-09-02 17:59:00,75.8,59.0,29.89,North,-999,0.0,4.0,56,0.00,,,0.00,49.00,VWS V14.01,2013-09-02 23:59:00,
2013-09-02 18:00:00,75.8,59.0,29.89,North,-999,0.0,4.0,56,0.00,,,0.00,49.00,VWS V14.01,2013-09-03 00:00:00,
2013-09-02 18:05:00,75.8,58.0,29.89,North,-999,0.0,4.0,54,0.00,,,0.00,35.00,VWS V14.01,2013-09-03 00:05:00,
2013-09-02 18:10:00,76.0,58.2,29.89,North,-999,0.0,0.0,54,0.00,,,0.00,28.00,VWS V14.01,2013-09-03 00:10:00,
2013-09-02 18:15:00,76.3,57.4,29.89,North,-999,1.0,5.0,52,0.00,,,0.00,30.00,VWS V14.01,2013-09-03 00:15:00,
2013-09-02 18:20:00,76.5,56.5,29.89,North,-999,4.0,5.0,50,0.00,,,0.00,32.00,VWS V14.01,2013-09-03 00:20:00,
2013-09-02 18:25:00,76.6,56.0,29.89,North,-999,5.0,7.0,49,0.00,,,0.00,23.00,VWS V14.01,2013-09-03 00:25:00,
2013-09-02 18:30:00,76.8,55.7,29.89,North,-999,7.0,8.0,48,0.00,,,0.00,14.00,VWS V14.01,2013-09-03 00:30:00,
2013-09-02 18:35:00,76.7,55.5,29.89,North,-999,5.0,10.0,48,0.00,,,0.00,9.00,VWS V14.01,2013-09-03 00:35:00,
2013-09-02 18:40:00,76.7,55.0,29.89,North,-999,6.0,10.0,47,0.00,,,0.00,5.00,VWS V14.01,2013-09-03 00:40:00,
2013-09-02 18:45:00,76.9,55.2,29.89,North,-999,6.0,10.0,47,0.00,,,0.00,5.00,VWS V14.01,2013-09-03 00:45:00,
2013-09-02 18:50:00,76.7,55.0,29.90,North,-999,6.0,8.0,47,0.00,,,0.00,9.00,VWS V14.01,2013-09-03 00:50:00,
2013-09-02 18:55:00,76.2,56.2,29.90,North,-999,6.0,9.0,50,0.00,,,0.00,12.00,VWS V14.01,2013-09-03 00:55:00,
2013-09-02 19:00:00,75.0,56.2,29.90,North,-999,7.0,11.0,52,0.00,,,0.00,16.00,VWS V14.01,2013-09-03 01:00:00,
2013-09-02 19:05:00,74.8,56.5,29.91,North,-999,5.0,11.0,53,0.00,,,0.00,19.00,VWS V14.01,2013-09-03 01:05:00,
2013-09-02 19:10:00,74.6,56.9,29.91,North,-999,0.0,4.0,54,0.00,,,0.00,21.00,VWS V14.01,2013-09-03 01:10:00,
2013-09-02 19:15:00,74.3,57.1,29.91,North,-999,0.0,4.0,55,0.00,,,0.00,18.00,VWS V14.01,2013-09-03 01:15:00,
2013-09-02 19:20:00,74.0,58.3,29.92,North,-999,0.0,4.0,58,0.00,,,0.00,16.00,VWS V14.01,2013-09-03 01:20:00,
2013-09-02 19:25:00,73.7,58.5,29.92,North,-999,0.0,4.0,59,0.00,,,0.00,21.00,VWS V14.01,2013-09-03 01:25:00,
2013-09-02 19:30:00,73.4,58.2,29.92,North,-999,0.0,0.0,59,0.00,,,0.00,23.00,VWS V14.01,2013-09-03 01:30:00,
2013-09-02 19:35:00,73.5,57.8,29.92,North,-999,0.0,1.0,58,0.00,,,0.00,18.00,VWS V14.01,2013-09-03 01:35:00,
2013-09-02 19:40:00,73.4,58.7,29.92,North,-999,0.0,0.0,60,0.00,,,0.00,9.00,VWS V14.01,2013-09-03 01:40:00,
2013-09-02 19:45:00,73.3,57.2,29.92,North,-999,0.0,0.0,57,0.00,,,0.00,5.00,VWS V14.01,2013-09-03 01:45:00,
2013-09-02 19:50:00,73.3,57.7,29.91,North,-999,0.0,0.0,58,0.00,,,0.00,5.00,VWS V14.01,2013-09-03 01:50:00,
2013-09-02 19:55:00,73.3,57.7,29.91,North,-999,0.0,0.0,58,0.00,,,0.00,0.00,VWS V14.01,2013-09-03 01:55:00,
2013-09-02 20:00:00,73.2,57.5,29.92,North,-999,0.0,0.0,58,0.00,,,0.00,0.00,VWS V14.01,2013-09-03 02:00:00,
2013-09-02 20:04:00,73.2,57.5,29.92,North,-999,0.0,0.0,58,0.00,,,0.00,0.00,VWS V14.01,2013-09-03 02:04:00,
2013-09-02 20:09:00,73.1,57.0,29.91,North,-999,0.0,4.0,57,0.00,,,0.00,0.00,VWS V14.01,2013-09-03 02:09:00,
2013-09-02 20:14:00,73.2,57.1,29.91,North,-999,2.0,4.0,57,0.00,,,0.00,0.00,VWS V14.01,2013-09-03 02:14:00,
2013-09-02 20:19:00,73.2,57.1,29.91,North,-999,0.0,0.0,57,0.00,,,0.00,0.00,VWS V14.01,2013-09-03 02:19:00,
2013-09-02 20:24:00,73.0,57.4,29.91,North,-999,0.0,0.0,58,0.00,,,0.00,0.00,VWS V14.01,2013-09-03 02:24:00,
2013-09-02 20:29:00,72.8,57.2,29.91,North,-999,0.0,0.0,58,0.00,,,0.00,0.00,VWS V14.01,2013-09-03 02:29:00,
2013-09-02 20:34:00,72.2,57.6,29.91,North,-999,0.0,1.0,60,0.00,,,0.00,0.00,VWS V14.01,2013-09-03 02:34:00,
2013-09-02 20:39:00,71.4,57.7,29.91,North,-999,2.0,4.0,62,0.00,,,0.00,0.00,VWS V14.01,2013-09-03 02:39:00,
2013-09-02 20:44:00,70.9,57.7,29.91,North,-999,0.0,4.0,63,0.00,,,0.00,0.00,VWS V14.01,2013-09-03 02:44:00,
2013-09-02 20:49:00,70.2,58.3,29.92,North,-999,0.0,0.0,66,0.00,,,0.00,0.00,VWS V14.01,2013-09-03 02:49:00,
2013-09-02 20:54:00,69.7,59.1,29.91,North,-999,0.0,0.0,69,0.00,,,0.00,0.00,VWS V14.01,2013-09-03 02:54:00,
2013-09-02 20:59:00,69.5,59.7,29.91,North,-999,0.0,0.0,71,0.00,,,0.00,0.00,VWS V14.01,2013-09-03 02:59:00,
2013-09-02 21:04:00,69.5,59.7,29.91,North,-999,0.0,1.0,71,0.00,,,0.00,0.00,VWS V14.01,2013-09-03 03:04:00,
2013-09-02 21:09:00,69.5,60.1,29.91,North,-999,0.0,0.0,72,0.00,,,0.00,0.00,VWS V14.01,2013-09-03 03:09:00,
2013-09-02 21:14:00,69.6,59.8,29.92,North,-999,0.0,0.0,71,0.00,,,0.00,0.00,VWS V14.01,2013-09-03 03:14:00,
2013-09-02 21:19:00,69.7,59.5,29.92,North,-999,0.0,0.0,70,0.00,,,0.00,0.00,VWS V14.01,2013-09-03 03:19:00,
2013-09-02 21:24:00,69.6,59.8,29.92,North,-999,0.0,0.0,71,0.00,,,0.00,0.00,VWS V14.01,2013-09-03 03:24:00,
2013-09-02 21:29:00,69.2,59.8,29.92,North,-999,0.0,0.0,72,0.00,,,0.00,0.00,VWS V14.01,2013-09-03 03:29:00,
2013-09-02 21:34:00,68.6,59.6,29.93,North,-999,0.0,0.0,73,0.00,,,0.00,0.00,VWS V14.01,2013-09-03 03:34:00,
2013-09-02 21:39:00,67.5,59.3,29.93,North,-999,5.0,5.0,75,0.00,,,0.00,0.00,VWS V14.01,2013-09-03 03:39:00,
2013-09-02 21:44:00,67.1,59.3,29.93,North,-999,5.0,6.0,76,0.00,,,0.00,0.00,VWS V14.01,2013-09-03 03:44:00,
2013-09-02 21:49:00,67.3,59.1,29.93,North,-999,4.0,5.0,75,0.00,,,0.00,0.00,VWS V14.01,2013-09-03 03:49:00,
2013-09-02 21:54:00,66.4,59.3,29.93,North,-999,7.0,7.0,78,0.00,,,0.00,0.00,VWS V14.01,2013-09-03 03:54:00,
2013-09-02 21:59:00,65.6,58.9,29.93,North,-999,6.0,7.0,79,0.00,,,0.00,0.00,VWS V14.01,2013-09-03 03:59:00,
2013-09-02 22:01:00,65.6,58.9,29.93,North,-999,5.0,7.0,79,0.00,,,0.00,0.00,VWS V14.01,2013-09-03 04:01:00,
2013-09-02 22:06:00,65.9,58.9,29.93,North,-999,5.0,7.0,78,0.00,,,0.00,0.00,VWS V14.01,2013-09-03 04:06:00,
2013-09-02 22:07:00,66.0,59.0,29.93,North,-999,4.0,7.0,78,0.00,,,0.00,0.00,VWS V14.01,2013-09-03 04:07:00,
2013-09-02 22:12:00,67.0,58.8,29.92,North,-999,5.0,6.0,75,0.00,,,0.00,0.00,VWS V14.01,2013-09-03 04:12:00,
2013-09-02 22:17:00,67.9,58.2,29.92,North,-999,5.0,6.0,71,0.00,,,0.00,0.00,VWS V14.01,2013-09-03 04:17:00,
2013-09-02 22:22:00,68.4,58.2,29.93,North,-999,6.0,7.0,70,0.00,,,0.00,0.00,VWS V14.01,2013-09-03 04:22:00,
2013-09-02 22:27:00,67.7,58.4,29.92,North,-999,4.0,7.0,72,0.00,,,0.00,0.00,VWS V14.01,2013-09-03 04:27:00,
2013-09-02 22:32:00,67.3,58.0,29.93,North,-999,6.0,6.0,72,0.00,,,0.00,0.00,VWS V14.01,2013-09-03 04:32:00,
2013-09-02 22:37:00,67.0,58.1,29.93,North,-999,6.0,6.0,73,0.00,,,0.00,0.00,VWS V14.01,2013-09-03 04:37:00,
2013-09-02 22:42:00,67.3,57.6,29.92,North,-999,4.0,7.0,71,0.00,,,0.00,0.00,VWS V14.01,2013-09-03 04:42:00,
2013-09-02 22:47:00,67.0,57.7,29.92,North,-999,4.0,7.0,72,0.00,,,0.00,0.00,VWS V14.01,2013-09-03 04:47:00,
2013-09-02 22:52:00,66.9,58.0,29.92,North,-999,5.0,7.0,73,0.00,,,0.00,0.00,VWS V14.01,2013-09-03 04:52:00,
2013-09-02 22:57:00,66.5,57.6,29.92,North,-999,2.0,7.0,73,0.00,,,0.00,0.00,VWS V14.01,2013-09-03 04:57:00,
2013-09-02 23:02:00,66.2,57.7,29.93,North,-999,3.0,5.0,74,0.00,,,0.00,0.00,VWS V14.01,2013-09-03 05:02:00,
2013-09-02 23:07:00,65.9,57.4,29.92,North,-999,0.0,5.0,74,0.00,,,0.00,0.00,VWS V14.01,2013-09-03 05:07:00,
2013-09-02 23:12:00,65.6,57.8,29.93,North,-999,0.0,0.0,76,0.00,,,0.00,0.00,VWS V14.01,2013-09-03 05:12:00,
2013-09-02 23:17:00,65.2,57.5,29.92,North,-999,0.0,0.0,76,0.00,,,0.00,0.00,VWS V14.01,2013-09-03 05:17:00,
2013-09-02 23:22:00,65.4,57.7,29.93,North,-999,0.0,0.0,76,0.00,,,0.00,0.00,VWS V14.01,2013-09-03 05:22:00,
2013-09-02 23:27:00,65.6,57.8,29.93,North,-999,0.0,0.0,76,0.00,,,0.00,0.00,VWS V14.01,2013-09-03 05:27:00,
2013-09-02 23:32:00,65.6,57.8,29.93,North,-999,0.0,0.0,76,0.00,,,0.00,0.00,VWS V14.01,2013-09-03 05:32:00,
2013-09-02 23:37:00,66.2,58.0,29.93,North,-999,6.0,6.0,75,0.00,,,0.00,0.00,VWS V14.01,2013-09-03 05:37:00,
2013-09-02 23:42:00,66.7,57.4,29.92,North,-999,9.0,11.0,72,0.00,,,0.00,0.00,VWS V14.01,2013-09-03 05:42:00,
2013-09-02 23:47:00,67.3,57.6,29.92,North,-999,6.0,11.0,71,0.00,,,0.00,0.00,VWS V14.01,2013-09-03 05:47:00,
2013-09-02 23:52:00,67.4,58.1,29.92,North,-999,5.0,8.0,72,0.00,,,0.00,0.00,VWS V14.01,2013-09-03 05:52:00,
2013-09-02 23:57:00,66.8,58.3,29.92,North,-999,6.0,9.0,74,0.00,,,0.00,0.00,VWS V14.01,2013-09-03 05:57:00,